When you browse on this site, cookies collect data to enhance your experience and personalize the content and advertising you see.
Visit our Privacy Policy to learn more. By continuing to use the site, you agree to this use of cookies and data.
  • In Hungary
  • List of Countries
  • For 7 days
  • Water Temperature
  • Satellite Maps
  • Weather Map
  • News
  • Weather Widgets
  • user-avatar
    Login

    Hourly Weather Vilcun

    Today, 19 March, Tuesday

    Time Temperature Precipitation Wind Pressure Humidity
    00:00 +4°C° 0 mm 0 mps 739 mmHg 94%
    01:00 +4°C° 0 mm 0 mps 739 mmHg 95%
    02:00 +3°C° 0 mm 0 mps 739 mmHg 95%
    03:00 +3°C° 0 mm 0 mps 739 mmHg 96%
    04:00 +3°C° 0 mm 0 mps 739 mmHg 96%
    05:00 +3°C° 0 mm 0 mps 740 mmHg 93%
    06:00 +4°C° 0 mm 0 mps 740 mmHg 89%
    07:00 +5°C° 0 mm 0 mps 740 mmHg 82%
    08:00 +9°C° 0 mm 1 mps 740 mmHg 70%
    09:00 +10°C° 0 mm 2 mps 740 mmHg 58%
    10:00 +14°C° 0 mm 2 mps 740 mmHg 46%
    11:00 +15°C° 0 mm 2 mps 739 mmHg 42%
    12:00 +16°C° 0 mm 3 mps 739 mmHg 39%
    13:00 +18°C° 0 mm 3 mps 738 mmHg 35%
    14:00 +17°C° 0 mm 3 mps 738 mmHg 36%
    15:00 +17°C° 0 mm 3 mps 737 mmHg 38%
    16:00 +17°C° 0 mm 3 mps 737 mmHg 39%
    17:00 +14°C° 0 mm 3 mps 737 mmHg 47%
    18:00 +13°C° 0 mm 2 mps 737 mmHg 56%
    19:00 +10°C° 0 mm 1 mps 737 mmHg 64%
    20:00 +9°C° 0 mm 1 mps 737 mmHg 68%
    21:00 +8°C° 0 mm 1 mps 737 mmHg 72%
    22:00 +7°C° 0 mm 1 mps 737 mmHg 76%
    23:00 +7°C° 0 mm 1 mps 737 mmHg 74%

    Tomorrow, 20 March, Wednesday

    Time Temperature Precipitation Wind Pressure Humidity
    00:00 +7°C° 0 mm 1 mps 736 mmHg 72%
    01:00 +6°C° 0 mm 1 mps 736 mmHg 70%
    02:00 +6°C° 0 mm 1 mps 735 mmHg 69%
    03:00 +5°C° 0 mm 1 mps 735 mmHg 68%
    04:00 +5°C° 0 mm 1 mps 735 mmHg 67%
    05:00 +6°C° 0 mm 1 mps 735 mmHg 64%
    06:00 +6°C° 0 mm 1 mps 734 mmHg 60%
    07:00 +7°C° 0 mm 1 mps 734 mmHg 57%
    08:00 +11°C° 0 mm 1 mps 734 mmHg 47%
    09:00 +15°C° 0 mm 1 mps 734 mmHg 38%
    10:00 +20°C° 0 mm 1 mps 734 mmHg 28%
    11:00 +20°C° 0 mm 2 mps 734 mmHg 26%
    12:00 +23°C° 0 mm 2 mps 733 mmHg 24%
    13:00 +24°C° 0 mm 2 mps 733 mmHg 22%
    14:00 +24°C° 0 mm 2 mps 733 mmHg 24%
    15:00 +24°C° 0 mm 3 mps 732 mmHg 27%
    16:00 +22°C° 0 mm 3 mps 732 mmHg 29%
    17:00 +19°C° 0 mm 2 mps 732 mmHg 42%
    18:00 +15°C° 0 mm 1 mps 732 mmHg 55%
    19:00 +12°C° 0 mm 1 mps 732 mmHg 69%
    20:00 +11°C° 0 mm 1 mps 732 mmHg 75%
    21:00 +9°C° 0 mm 0 mps 732 mmHg 82%
    22:00 +8°C° 0 mm 0 mps 732 mmHg 88%
    23:00 +7°C° 0 mm 0 mps 732 mmHg 89%

    Day after tomorrow, 21 March, Thursday

    Time Temperature Precipitation Wind Pressure Humidity
    00:00 +7°C° 0 mm 0 mps 732 mmHg 89%
    01:00 +7°C° 0 mm 0 mps 732 mmHg 89%
    02:00 +7°C° 0 mm 0 mps 732 mmHg 89%
    03:00 +7°C° 0 mm 0 mps 732 mmHg 89%
    04:00 +7°C° 0 mm 0 mps 732 mmHg 88%
    05:00 +7°C° 0 mm 0 mps 733 mmHg 85%
    06:00 +8°C° 0 mm 0 mps 733 mmHg 82%
    07:00 +9°C° 0 mm 0 mps 733 mmHg 79%
    08:00 +12°C° 0 mm 0 mps 733 mmHg 67%
    09:00 +15°C° 0 mm 1 mps 733 mmHg 55%
    10:00 +19°C° 0 mm 1 mps 733 mmHg 43%
    11:00 +21°C° 0 mm 1 mps 733 mmHg 39%
    12:00 +21°C° 0 mm 2 mps 733 mmHg 36%
    13:00 +23°C° 0 mm 2 mps 733 mmHg 32%
    14:00 +23°C° 0 mm 2 mps 733 mmHg 36%
    15:00 +23°C° 0 mm 2 mps 733 mmHg 39%
    16:00 +21°C° 0 mm 2 mps 733 mmHg 43%
    17:00 +19°C° 0 mm 2 mps 733 mmHg 56%
    18:00 +16°C° 0 mm 1 mps 733 mmHg 69%
    19:00 +13°C° 0 mm 1 mps 734 mmHg 82%
    20:00 +12°C° 0 mm 1 mps 734 mmHg 87%
    21:00 +12°C° 0 mm 1 mps 734 mmHg 91%
    22:00 +10°C° 0 mm 0 mps 735 mmHg 96%
    23:00 +9°C° 0 mm 0 mps 735 mmHg 96%

    22 March, Friday

    Time Temperature Precipitation Wind Pressure Humidity
    00:00 +9°C° 0 mm 0 mps 735 mmHg 96%
    01:00 +9°C° 0 mm 0 mps 735 mmHg 96%
    02:00 +9°C° 0 mm 0 mps 734 mmHg 96%
    03:00 +9°C° 0 mm 0 mps 734 mmHg 95%
    04:00 +10°C° 0 mm 1 mps 734 mmHg 95%
    05:00 +10°C° 0 mm 1 mps 734 mmHg 92%
    06:00 +11°C° 0 mm 1 mps 734 mmHg 89%
    07:00 +11°C° 0 mm 1 mps 734 mmHg 86%
    08:00 +14°C° 0 mm 1 mps 734 mmHg 76%
    09:00 +18°C° 0 mm 1 mps 734 mmHg 65%
    10:00 +20°C° 0 mm 2 mps 734 mmHg 55%
    11:00 +21°C° 0 mm 2 mps 733 mmHg 50%
    12:00 +23°C° 0 mm 2 mps 733 mmHg 45%
    13:00 +25°C° 0 mm 2 mps 733 mmHg 41%
    14:00 +24°C° 0 mm 2 mps 732 mmHg 41%
    15:00 +24°C° 0 mm 2 mps 732 mmHg 42%
    16:00 +24°C° 0 mm 3 mps 732 mmHg 43%
    17:00 +20°C° 0 mm 2 mps 732 mmHg 55%
    18:00 +17°C° 0 mm 2 mps 733 mmHg 68%
    19:00 +14°C° 0 mm 1 mps 733 mmHg 80%
    20:00 +13°C° 0 mm 1 mps 733 mmHg 85%
    21:00 +12°C° 0 mm 1 mps 733 mmHg 90%
    22:00 +10°C° 0 mm 0 mps 733 mmHg 94%
    23:00 +10°C° 0 mm 0 mps 733 mmHg 93%

    23 March, Saturday

    Time Temperature Precipitation Wind Pressure Humidity
    00:00 +11°C° 0 mm 1 mps 733 mmHg 92%
    01:00 +11°C° 0 mm 1 mps 732 mmHg 91%
    02:00 +12°C° 0.3 mm 1 mps 732 mmHg 90%
    03:00 +12°C° 0.3 mm 1 mps 732 mmHg 90%
    04:00 +13°C° 0.3 mm 1 mps 732 mmHg 90%
    05:00 +13°C° 0 mm 1 mps 733 mmHg 91%
    06:00 +13°C° 0 mm 1 mps 733 mmHg 92%
    07:00 +13°C° 0 mm 1 mps 734 mmHg 94%
    08:00 +15°C° 0 mm 1 mps 734 mmHg 84%
    09:00 +16°C° 0 mm 1 mps 734 mmHg 75%
    10:00 +18°C° 0 mm 1 mps 735 mmHg 66%
    11:00 +19°C° 0 mm 1 mps 735 mmHg 58%
    12:00 +19°C° 0 mm 2 mps 735 mmHg 50%
    13:00 +21°C° 0 mm 2 mps 735 mmHg 43%
    14:00 +20°C° 0 mm 2 mps 735 mmHg 43%
    15:00 +20°C° 0 mm 3 mps 735 mmHg 43%
    16:00 +20°C° 0 mm 3 mps 735 mmHg 43%
    17:00 +18°C° 0 mm 2 mps 735 mmHg 53%
    18:00 +15°C° 0 mm 2 mps 736 mmHg 62%
    19:00 +13°C° 0 mm 1 mps 736 mmHg 72%
    20:00 +12°C° 0 mm 1 mps 736 mmHg 75%
    21:00 +11°C° 0 mm 1 mps 736 mmHg 78%
    22:00 +11°C° 0 mm 1 mps 737 mmHg 81%
    23:00 +10°C° 0 mm 1 mps 737 mmHg 79%

    24 March, Sunday

    Time Temperature Precipitation Wind Pressure Humidity
    00:00 +10°C° 0 mm 1 mps 736 mmHg 77%
    01:00 +10°C° 0 mm 1 mps 736 mmHg 75%
    02:00 +10°C° 0 mm 1 mps 736 mmHg 73%
    03:00 +10°C° 0 mm 1 mps 736 mmHg 72%
    04:00 +10°C° 0 mm 1 mps 736 mmHg 71%
    05:00 +10°C° 0 mm 1 mps 736 mmHg 69%
    06:00 +11°C° 0 mm 1 mps 736 mmHg 67%
    07:00 +11°C° 0 mm 1 mps 736 mmHg 65%
    08:00 +15°C° 0 mm 1 mps 735 mmHg 55%
    09:00 +18°C° 0 mm 2 mps 735 mmHg 45%
    10:00 +23°C° 0 mm 2 mps 735 mmHg 35%
    11:00 +24°C° 0 mm 2 mps 735 mmHg 32%
    12:00 +26°C° 0 mm 2 mps 734 mmHg 28%
    13:00 +27°C° 0 mm 2 mps 734 mmHg 24%
    14:00 +27°C° 0 mm 2 mps 733 mmHg 25%
    15:00 +27°C° 0 mm 2 mps 733 mmHg 26%
    16:00 +27°C° 0 mm 2 mps 733 mmHg 27%
    17:00 +24°C° 0 mm 2 mps 733 mmHg 33%
    18:00 +20°C° 0 mm 2 mps 733 mmHg 40%
    19:00 +18°C° 0 mm 1 mps 733 mmHg 46%
    20:00 +16°C° 0 mm 1 mps 733 mmHg 48%
    21:00 +15°C° 0 mm 1 mps 733 mmHg 50%
    22:00 +14°C° 0 mm 1 mps 733 mmHg 51%
    23:00 +13°C° 0 mm 1 mps 733 mmHg 52%
    Show more